Location: Taipo
(41.0000°S, 175.9500°E)
Time: 03:57:27
(UTC+00:00)

FengYun 1-2 T - Pass Details

Date: 18 April 2024
Orbit: 845 x 881 km, 98.8° (Epoch: 22 May)

Event Time Altitude Azimuth Distance (km) Brightness Sun altitude
Rises 17:02:49 0° 357° (N) 3,396 7.3 -21.0°
Reaches altitude 10° 17:05:16 10° 350° (N) 2,469 6.5 -20.5°
Maximum altitude 17:10:29 44° 279° (W) 1,170 4.5 -19.5°
Drops below altitude 10° 17:15:46 10° 207° (SSW) 2,506 6.4 -18.5°
Sets 17:18:18 0° 200° (SSW) 3,453 7.2 -18.0°
